Time,TemperatureF,DewpointF,PressureIn,WindDirection,WindDirectionDegrees,WindSpeedMPH,WindSpeedGustMPH,Humidity,HourlyPrecipIn,Conditions,Clouds,dailyrainin,SoftwareType,DateUTC
2013-03-06 00:00:00,33.8,32.8,29.64,NE,38,0.0,0.0,96,0.12,,---,0.00,VWS V14.01,2013-03-06 05:00:00,
2013-03-06 00:05:00,33.7,32.7,29.64,NNE,30,1.0,4.0,96,0.12,,---,0.00,VWS V14.01,2013-03-06 05:05:00,
2013-03-06 00:10:00,33.7,32.7,29.64,NNW,345,0.0,4.0,96,0.13,,---,0.01,VWS V14.01,2013-03-06 05:10:00,
2013-03-06 00:15:00,33.7,32.7,29.64,NNW,345,0.0,4.0,96,0.13,,---,0.01,VWS V14.01,2013-03-06 05:15:00,
2013-03-06 00:20:00,33.7,32.7,29.64,NNW,345,3.0,4.0,96,0.13,,---,0.01,VWS V14.01,2013-03-06 05:20:00,
2013-03-06 00:25:00,33.6,32.6,29.64,NNW,345,1.0,4.0,96,0.13,,---,0.01,VWS V14.01,2013-03-06 05:25:00,
2013-03-06 00:30:00,33.5,32.5,29.64,NNW,345,2.0,3.0,96,0.04,,---,0.01,VWS V14.01,2013-03-06 05:30:00,
2013-03-06 00:35:00,33.3,32.3,29.64,NNW,345,2.0,3.0,96,0.04,,---,0.01,VWS V14.01,2013-03-06 05:35:00,
2013-03-06 00:40:00,33.2,32.2,29.64,NNW,345,0.0,3.0,96,0.04,,---,0.01,VWS V14.01,2013-03-06 05:40:00,
2013-03-06 00:45:00,33.1,32.1,29.63,NNW,345,3.0,3.0,96,0.04,,---,0.01,VWS V14.01,2013-03-06 05:45:00,
2013-03-06 00:50:00,33.0,32.0,29.63,NNW,345,0.0,3.0,96,0.04,,---,0.01,VWS V14.01,2013-03-06 05:50:00,
2013-03-06 00:55:00,32.8,31.8,29.63,NNW,345,3.0,3.0,96,0.04,,---,0.01,VWS V14.01,2013-03-06 05:55:00,
2013-03-06 01:00:00,32.8,31.8,29.63,NNW,345,0.0,0.0,96,0.01,,---,0.01,VWS V14.01,2013-03-06 06:00:00,
2013-03-06 01:05:00,32.8,31.8,29.63,NNW,346,4.0,5.0,96,0.01,,---,0.01,VWS V14.01,2013-03-06 06:05:00,
2013-03-06 01:10:00,32.8,31.8,29.64,NNW,346,0.0,5.0,96,0.01,,---,0.01,VWS V14.01,2013-03-06 06:10:00,
2013-03-06 01:15:00,32.8,31.8,29.64,NNW,346,1.0,5.0,96,0.01,,---,0.01,VWS V14.01,2013-03-06 06:15:00,
2013-03-06 01:20:00,32.8,31.8,29.63,NNW,346,0.0,5.0,96,0.01,,---,0.01,VWS V14.01,2013-03-06 06:20:00,
2013-03-06 01:25:00,32.8,31.8,29.63,NNW,346,2.0,5.0,96,0.01,,---,0.01,VWS V14.01,2013-03-06 06:25:00,
2013-03-06 01:30:00,32.7,31.7,29.64,NNW,346,1.0,3.0,96,0.00,,---,0.01,VWS V14.01,2013-03-06 06:30:00,
2013-03-06 01:35:00,32.8,31.8,29.64,NNW,346,0.0,3.0,96,0.00,,---,0.01,VWS V14.01,2013-03-06 06:35:00,
2013-03-06 01:40:00,32.7,31.7,29.64,NNW,346,4.0,4.0,96,0.00,,---,0.01,VWS V14.01,2013-03-06 06:40:00,
2013-03-06 01:45:00,32.7,31.7,29.64,NNW,346,3.0,5.0,96,0.00,,---,0.01,VWS V14.01,2013-03-06 06:45:00,
2013-03-06 01:50:00,32.6,31.6,29.64,NNW,343,3.0,5.0,96,0.00,,---,0.01,VWS V14.01,2013-03-06 06:50:00,
2013-03-06 01:55:00,32.7,31.7,29.64,NW,304,4.0,7.0,96,0.00,,---,0.01,VWS V14.01,2013-03-06 06:55:00,
2013-03-06 02:00:00,32.7,31.7,29.64,NW,304,2.0,2.0,96,0.00,,---,0.01,VWS V14.01,2013-03-06 07:00:00,
2013-03-06 02:05:00,32.7,31.7,29.64,NW,304,3.0,5.0,96,0.00,,---,0.01,VWS V14.01,2013-03-06 07:05:00,
2013-03-06 02:10:00,32.8,31.8,29.64,NW,304,3.0,5.0,96,0.00,,---,0.01,VWS V14.01,2013-03-06 07:10:00,
2013-03-06 02:15:00,32.8,31.8,29.64,NW,304,3.0,5.0,96,0.00,,---,0.01,VWS V14.01,2013-03-06 07:15:00,
2013-03-06 02:20:00,32.8,31.8,29.64,NW,304,1.0,5.0,96,0.00,,---,0.01,VWS V14.01,2013-03-06 07:20:00,
2013-03-06 02:25:00,32.7,31.7,29.63,NW,304,1.0,5.0,96,0.00,,---,0.01,VWS V14.01,2013-03-06 07:25:00,
2013-03-06 02:30:00,32.8,31.8,29.63,NW,304,1.0,3.0,96,0.00,,---,0.01,VWS V14.01,2013-03-06 07:30:00,
2013-03-06 02:35:00,32.8,31.8,29.63,NW,304,2.0,3.0,96,0.00,,---,0.01,VWS V14.01,2013-03-06 07:35:00,
2013-03-06 02:40:00,32.8,31.8,29.63,NW,304,2.0,4.0,96,0.00,,---,0.01,VWS V14.01,2013-03-06 07:40:00,
2013-03-06 02:45:00,32.8,31.8,29.62,NW,304,3.0,4.0,96,0.00,,---,0.01,VWS V14.01,2013-03-06 07:45:00,
2013-03-06 02:50:00,32.7,31.7,29.62,NW,304,0.0,4.0,96,0.00,,---,0.01,VWS V14.01,2013-03-06 07:50:00,
2013-03-06 02:55:00,32.7,31.7,29.62,NW,304,3.0,6.0,96,0.00,,---,0.01,VWS V14.01,2013-03-06 07:55:00,
2013-03-06 03:00:00,32.7,31.9,29.62,WNW,290,5.0,5.0,97,0.00,,---,0.01,VWS V14.01,2013-03-06 08:00:00,
2013-03-06 03:05:00,32.8,32.0,29.62,WNW,291,3.0,6.0,97,0.00,,---,0.01,VWS V14.01,2013-03-06 08:05:00,
2013-03-06 03:10:00,32.8,32.0,29.62,WNW,291,2.0,6.0,97,0.00,,---,0.01,VWS V14.01,2013-03-06 08:10:00,
2013-03-06 03:15:00,32.8,32.0,29.61,WNW,292,1.0,6.0,97,0.00,,---,0.01,VWS V14.01,2013-03-06 08:15:00,
2013-03-06 03:20:00,32.8,32.0,29.61,NW,324,7.0,8.0,97,0.00,,---,0.01,VWS V14.01,2013-03-06 08:20:00,
2013-03-06 03:25:00,32.9,32.1,29.61,NNW,346,2.0,8.0,97,0.00,,---,0.01,VWS V14.01,2013-03-06 08:25:00,
2013-03-06 03:30:00,33.0,32.2,29.61,WNW,302,6.0,7.0,97,0.00,,---,0.01,VWS V14.01,2013-03-06 08:30:00,
2013-03-06 03:35:00,33.0,32.0,29.60,NW,321,4.0,7.0,96,0.00,,---,0.01,VWS V14.01,2013-03-06 08:35:00,
2013-03-06 03:40:00,33.1,32.1,29.61,NNW,339,2.0,8.0,96,0.00,,---,0.01,VWS V14.01,2013-03-06 08:40:00,
2013-03-06 03:45:00,33.2,32.2,29.61,West,273,2.0,8.0,96,0.00,,---,0.01,VWS V14.01,2013-03-06 08:45:00,
2013-03-06 03:50:00,33.2,32.2,29.61,NW,323,5.0,8.0,96,0.00,,---,0.01,VWS V14.01,2013-03-06 08:50:00,
2013-03-06 03:55:00,33.3,32.0,29.61,NW,325,4.0,9.0,95,0.00,,---,0.01,VWS V14.01,2013-03-06 08:55:00,
2013-03-06 04:00:00,33.4,31.9,29.61,NNW,338,3.0,4.0,94,0.00,,---,0.01,VWS V14.01,2013-03-06 09:00:00,
2013-03-06 04:05:00,33.5,31.7,29.61,WNW,287,3.0,11.0,93,0.00,,---,0.01,VWS V14.01,2013-03-06 09:05:00,
2013-03-06 04:10:00,33.7,31.6,29.61,NW,308,3.0,11.0,92,0.00,,---,0.01,VWS V14.01,2013-03-06 09:10:00,
2013-03-06 04:15:00,33.8,31.5,29.61,WNW,302,4.0,11.0,91,0.00,,---,0.01,VWS V14.01,2013-03-06 09:15:00,
2013-03-06 04:20:00,33.9,31.3,29.61,WNW,303,2.0,11.0,90,0.00,,---,0.01,VWS V14.01,2013-03-06 09:20:00,
2013-03-06 04:25:00,34.0,31.4,29.61,North,350,5.0,11.0,90,0.00,,---,0.01,VWS V14.01,2013-03-06 09:25:00,
2013-03-06 04:30:00,34.1,31.2,29.62,WNW,303,5.0,12.0,89,0.00,,---,0.01,VWS V14.01,2013-03-06 09:30:00,
2013-03-06 04:35:00,34.1,31.2,29.62,NNW,344,5.0,12.0,89,0.00,,---,0.01,VWS V14.01,2013-03-06 09:35:00,
2013-03-06 04:40:00,34.0,31.1,29.62,West,277,5.0,12.0,89,0.00,,---,0.01,VWS V14.01,2013-03-06 09:40:00,
2013-03-06 04:45:00,34.1,30.9,29.62,NW,304,3.0,12.0,88,0.00,,---,0.01,VWS V14.01,2013-03-06 09:45:00,
2013-03-06 04:50:00,34.1,30.9,29.62,WNW,303,3.0,12.0,88,0.00,,---,0.01,VWS V14.01,2013-03-06 09:50:00,
2013-03-06 04:55:00,34.0,30.8,29.62,NW,319,5.0,12.0,88,0.00,,---,0.01,VWS V14.01,2013-03-06 09:55:00,
2013-03-06 05:00:00,34.0,30.5,29.62,NNW,333,8.0,14.0,87,0.00,,---,0.01,VWS V14.01,2013-03-06 10:00:00,
2013-03-06 05:05:00,34.0,30.3,29.62,NW,313,6.0,14.0,86,0.00,,---,0.01,VWS V14.01,2013-03-06 10:05:00,
2013-03-06 05:10:00,34.1,30.4,29.62,WNW,300,5.0,14.0,86,0.00,,---,0.01,VWS V14.01,2013-03-06 10:10:00,
2013-03-06 05:15:00,33.9,29.9,29.62,North,9,10.0,14.0,85,0.00,,---,0.01,VWS V14.01,2013-03-06 10:15:00,
2013-03-06 05:20:00,33.9,29.6,29.62,NW,322,9.0,15.0,84,0.00,,---,0.01,VWS V14.01,2013-03-06 10:20:00,
2013-03-06 05:25:00,33.9,29.3,29.62,NW,308,9.0,15.0,83,0.00,,---,0.01,VWS V14.01,2013-03-06 10:25:00,
2013-03-06 05:30:00,33.9,29.3,29.62,NNW,330,3.0,9.0,83,0.00,,---,0.01,VWS V14.01,2013-03-06 10:30:00,
2013-03-06 05:35:00,33.9,29.0,29.62,NW,304,10.0,14.0,82,0.00,,---,0.01,VWS V14.01,2013-03-06 10:35:00,
2013-03-06 05:40:00,34.0,28.8,29.63,NW,304,5.0,14.0,81,0.00,,---,0.01,VWS V14.01,2013-03-06 10:40:00,
2013-03-06 05:45:00,33.9,28.7,29.62,NW,325,6.0,14.0,81,0.00,,---,0.01,VWS V14.01,2013-03-06 10:45:00,
2013-03-06 05:50:00,33.9,28.7,29.63,NW,323,5.0,14.0,81,0.00,,---,0.01,VWS V14.01,2013-03-06 10:50:00,
2013-03-06 05:55:00,33.8,28.6,29.63,NW,325,7.0,14.0,81,0.00,,---,0.01,VWS V14.01,2013-03-06 10:55:00,
2013-03-06 06:00:00,33.8,28.6,29.63,NW,325,6.0,10.0,81,0.00,,---,0.01,VWS V14.01,2013-03-06 11:00:00,
2013-03-06 06:05:00,33.8,28.6,29.63,NW,312,8.0,12.0,81,0.00,,---,0.01,VWS V14.01,2013-03-06 11:05:00,
2013-03-06 06:10:00,33.7,28.8,29.63,WNW,302,5.0,12.0,82,0.00,,---,0.01,VWS V14.01,2013-03-06 11:10:00,
2013-03-06 06:15:00,33.6,28.7,29.63,NNW,337,9.0,12.0,82,0.00,,---,0.01,VWS V14.01,2013-03-06 11:15:00,
2013-03-06 06:20:00,33.5,28.9,29.64,WNW,295,12.0,12.0,83,0.00,,---,0.01,VWS V14.01,2013-03-06 11:20:00,
2013-03-06 06:25:00,33.4,29.1,29.64,WNW,299,8.0,16.0,84,0.00,,---,0.01,VWS V14.01,2013-03-06 11:25:00,
2013-03-06 06:30:00,33.3,28.7,29.64,WNW,286,8.0,12.0,83,0.00,,---,0.01,VWS V14.01,2013-03-06 11:30:00,
2013-03-06 06:35:00,33.3,28.7,29.64,NW,313,6.0,12.0,83,0.00,,---,0.01,VWS V14.01,2013-03-06 11:35:00,
2013-03-06 06:40:00,33.2,28.6,29.64,NNE,19,3.0,13.0,83,0.00,,---,0.01,VWS V14.01,2013-03-06 11:40:00,
2013-03-06 06:45:00,33.1,28.5,29.64,NNW,329,4.0,15.0,83,0.00,,---,0.01,VWS V14.01,2013-03-06 11:45:00,
2013-03-06 06:50:00,33.1,28.8,29.64,NW,324,8.0,15.0,84,0.00,,---,0.01,VWS V14.01,2013-03-06 11:50:00,
2013-03-06 06:55:00,33.0,28.7,29.64,NW,310,4.0,15.0,84,0.00,,---,0.01,VWS V14.01,2013-03-06 11:55:00,
2013-03-06 07:00:00,32.9,28.9,29.65,NW,311,4.0,9.0,85,0.00,,---,0.01,VWS V14.01,2013-03-06 12:00:00,
2013-03-06 07:05:00,32.8,28.8,29.65,WNW,288,8.0,11.0,85,0.00,,---,0.01,VWS V14.01,2013-03-06 12:05:00,
2013-03-06 07:10:00,32.7,28.7,29.65,NNW,338,5.0,12.0,85,0.00,,---,0.01,VWS V14.01,2013-03-06 12:10:00,
2013-03-06 07:15:00,32.7,28.4,29.65,West,276,6.0,12.0,84,0.00,,---,0.01,VWS V14.01,2013-03-06 12:15:00,
2013-03-06 07:20:00,32.6,28.0,29.65,WNW,291,4.0,16.0,83,0.00,,---,0.01,VWS V14.01,2013-03-06 12:20:00,
2013-03-06 07:25:00,32.6,27.7,29.65,WNW,302,8.0,16.0,82,0.00,,---,0.01,VWS V14.01,2013-03-06 12:25:00,
2013-03-06 07:30:00,32.6,28.0,29.66,NW,321,7.0,10.0,83,0.00,,---,0.01,VWS V14.01,2013-03-06 12:30:00,
2013-03-06 07:35:00,32.5,27.9,29.66,WNW,303,6.0,13.0,83,0.00,,---,0.01,VWS V14.01,2013-03-06 12:35:00,
2013-03-06 07:40:00,32.5,27.6,29.66,West,281,10.0,13.0,82,0.00,,---,0.01,VWS V14.01,2013-03-06 12:40:00,
2013-03-06 07:45:00,32.5,27.6,29.66,WNW,296,6.0,15.0,82,0.00,,---,0.01,VWS V14.01,2013-03-06 12:45:00,
2013-03-06 07:50:00,32.6,27.4,29.66,West,279,8.0,21.0,81,0.00,,---,0.01,VWS V14.01,2013-03-06 12:50:00,
2013-03-06 07:55:00,32.7,27.8,29.66,NW,309,6.0,21.0,82,0.00,,---,0.01,VWS V14.01,2013-03-06 12:55:00,
2013-03-06 08:00:00,32.6,27.4,29.66,West,279,12.0,12.0,81,0.00,,---,0.01,VWS V14.01,2013-03-06 13:00:00,
2013-03-06 08:05:00,32.7,27.2,29.67,NW,323,9.0,17.0,80,0.00,,---,0.01,VWS V14.01,2013-03-06 13:05:00,
2013-03-06 08:10:00,32.7,27.2,29.67,WNW,303,9.0,17.0,80,0.00,,---,0.01,VWS V14.01,2013-03-06 13:10:00,
2013-03-06 08:15:00,32.7,27.2,29.68,NNW,329,12.0,17.0,80,0.00,,---,0.01,VWS V14.01,2013-03-06 13:15:00,
2013-03-06 08:20:00,32.7,27.2,29.68,NW,316,3.0,18.0,80,0.00,,---,0.01,VWS V14.01,2013-03-06 13:20:00,
2013-03-06 08:25:00,32.7,26.9,29.68,NNW,330,9.0,18.0,79,0.00,,---,0.01,VWS V14.01,2013-03-06 13:25:00,
2013-03-06 08:30:00,32.7,26.9,29.68,NW,309,5.0,12.0,79,0.00,,---,0.01,VWS V14.01,2013-03-06 13:30:00,
2013-03-06 08:35:00,32.8,27.3,29.68,WNW,298,7.0,15.0,80,0.00,,---,0.01,VWS V14.01,2013-03-06 13:35:00,
2013-03-06 08:40:00,32.9,26.8,29.69,NNW,333,12.0,16.0,78,0.00,,---,0.01,VWS V14.01,2013-03-06 13:40:00,
2013-03-06 08:45:00,33.0,26.9,29.69,NW,326,9.0,17.0,78,0.00,,---,0.01,VWS V14.01,2013-03-06 13:45:00,
2013-03-06 08:50:00,33.1,26.7,29.69,WSW,251,15.0,23.0,77,0.00,,---,0.01,VWS V14.01,2013-03-06 13:50:00,
2013-03-06 08:55:00,33.2,27.1,29.69,West,271,11.0,23.0,78,0.00,,---,0.01,VWS V14.01,2013-03-06 13:55:00,
2013-03-06 09:00:00,33.2,26.5,29.69,NW,326,13.0,13.0,76,0.00,,---,0.01,VWS V14.01,2013-03-06 14:00:00,
2013-03-06 09:05:00,33.2,26.8,29.69,WNW,298,9.0,19.0,77,0.00,,---,0.01,VWS V14.01,2013-03-06 14:05:00,
2013-03-06 09:10:00,33.3,26.9,29.69,NNW,327,4.0,24.0,77,0.00,,---,0.01,VWS V14.01,2013-03-06 14:10:00,
2013-03-06 09:15:00,33.4,27.0,29.70,NW,322,9.0,24.0,77,0.00,,---,0.01,VWS V14.01,2013-03-06 14:15:00,
2013-03-06 09:20:00,33.4,26.7,29.70,NW,319,11.0,27.0,76,0.00,,---,0.01,VWS V14.01,2013-03-06 14:20:00,
2013-03-06 09:25:00,33.4,27.0,29.70,NW,311,8.0,27.0,77,0.00,,---,0.01,VWS V14.01,2013-03-06 14:25:00,
2013-03-06 09:30:00,33.5,26.8,29.70,WNW,284,14.0,29.0,76,0.00,,---,0.01,VWS V14.01,2013-03-06 14:30:00,
2013-03-06 09:35:00,33.6,26.9,29.70,NW,320,16.0,29.0,76,0.00,,---,0.01,VWS V14.01,2013-03-06 14:35:00,
2013-03-06 09:40:00,33.7,27.3,29.69,WNW,302,22.0,29.0,77,0.00,,---,0.01,VWS V14.01,2013-03-06 14:40:00,
2013-03-06 09:45:00,33.8,27.0,29.70,WNW,291,21.0,29.0,76,0.00,,---,0.01,VWS V14.01,2013-03-06 14:45:00,
2013-03-06 09:50:00,33.9,27.1,29.70,WNW,302,17.0,30.0,76,0.00,,---,0.01,VWS V14.01,2013-03-06 14:50:00,
2013-03-06 09:55:00,34.0,26.6,29.70,West,265,21.0,31.0,74,0.00,,---,0.01,VWS V14.01,2013-03-06 14:55:00,
2013-03-06 10:00:00,34.1,27.3,29.70,WNW,284,20.0,23.0,76,0.00,,---,0.01,VWS V14.01,2013-03-06 15:00:00,
2013-03-06 10:05:00,34.3,27.9,29.70,West,276,21.0,24.0,77,0.00,,---,0.01,VWS V14.01,2013-03-06 15:05:00,
2013-03-06 10:10:00,34.3,27.2,29.70,WSW,258,18.0,24.0,75,0.00,,---,0.01,VWS V14.01,2013-03-06 15:10:00,
2013-03-06 10:15:00,34.5,27.4,29.71,WNW,303,16.0,32.0,75,0.00,,---,0.01,VWS V14.01,2013-03-06 15:15:00,
2013-03-06 10:20:00,34.6,27.2,29.71,NW,326,20.0,32.0,74,0.00,,---,0.01,VWS V14.01,2013-03-06 15:20:00,
2013-03-06 10:25:00,34.7,27.3,29.71,WNW,288,13.0,32.0,74,0.00,,---,0.01,VWS V14.01,2013-03-06 15:25:00,
2013-03-06 10:30:00,35.0,27.6,29.72,North,5,15.0,24.0,74,0.00,,---,0.01,VWS V14.01,2013-03-06 15:30:00,
2013-03-06 10:35:00,35.3,27.2,29.72,NW,311,7.0,34.0,72,0.00,,---,0.01,VWS V14.01,2013-03-06 15:35:00,
2013-03-06 10:40:00,35.6,28.8,29.72,WNW,303,17.0,34.0,76,0.00,,---,0.01,VWS V14.01,2013-03-06 15:40:00,
2013-03-06 10:45:00,35.8,27.7,29.73,NNW,331,7.0,34.0,72,0.00,,---,0.01,VWS V14.01,2013-03-06 15:45:00,
2013-03-06 10:50:00,36.1,27.3,29.73,West,271,22.0,34.0,70,0.00,,---,0.01,VWS V14.01,2013-03-06 15:50:00,
2013-03-06 10:55:00,36.4,27.9,29.73,WNW,303,21.0,34.0,71,0.00,,---,0.01,VWS V14.01,2013-03-06 15:55:00,
2013-03-06 11:00:00,36.6,27.8,29.73,NNW,341,16.0,25.0,70,0.00,,---,0.01,VWS V14.01,2013-03-06 16:00:00,
2013-03-06 11:05:00,36.8,28.6,29.74,NW,319,13.0,30.0,72,0.00,,---,0.01,VWS V14.01,2013-03-06 16:05:00,
2013-03-06 11:10:00,37.1,28.6,29.74,NW,313,17.0,30.0,71,0.00,,---,0.01,VWS V14.01,2013-03-06 16:10:00,
2013-03-06 11:15:00,37.0,28.1,29.74,NW,314,12.0,30.0,70,0.00,,---,0.01,VWS V14.01,2013-03-06 16:15:00,
2013-03-06 11:20:00,37.2,28.7,29.75,NNW,328,13.0,30.0,71,0.01,,---,0.02,VWS V14.01,2013-03-06 16:20:00,
2013-03-06 11:25:00,37.2,28.7,29.75,WNW,292,20.0,30.0,71,0.01,,---,0.02,VWS V14.01,2013-03-06 16:25:00,
2013-03-06 11:30:00,37.0,28.1,29.75,West,274,17.0,21.0,70,0.02,,---,0.03,VWS V14.01,2013-03-06 16:30:00,
2013-03-06 11:35:00,36.8,28.3,29.75,WNW,292,30.0,32.0,71,0.02,,---,0.03,VWS V14.01,2013-03-06 16:35:00,
2013-03-06 11:40:00,36.8,28.3,29.76,NNW,338,19.0,32.0,71,0.02,,---,0.03,VWS V14.01,2013-03-06 16:40:00,
2013-03-06 11:45:00,37.5,29.6,29.76,NW,315,13.0,32.0,73,0.02,,---,0.03,VWS V14.01,2013-03-06 16:45:00,
2013-03-06 11:50:00,38.1,30.2,29.76,West,276,15.0,32.0,73,0.03,,---,0.04,VWS V14.01,2013-03-06 16:50:00,
2013-03-06 11:55:00,38.2,28.9,29.76,NW,319,14.0,32.0,69,0.04,,---,0.05,VWS V14.01,2013-03-06 16:55:00,
2013-03-06 12:00:00,38.0,28.8,29.77,WNW,293,21.0,30.0,69,0.04,,---,0.05,VWS V14.01,2013-03-06 17:00:00,
2013-03-06 12:05:00,38.2,29.3,29.77,NNW,334,14.0,30.0,70,0.05,,---,0.06,VWS V14.01,2013-03-06 17:05:00,
2013-03-06 12:10:00,38.5,29.9,29.77,NW,304,12.0,30.0,71,0.06,,---,0.07,VWS V14.01,2013-03-06 17:10:00,
2013-03-06 12:15:00,38.7,28.7,29.77,North,360,19.0,31.0,67,0.06,,---,0.07,VWS V14.01,2013-03-06 17:15:00,
2013-03-06 12:20:00,38.2,28.2,29.77,NW,319,24.0,31.0,67,0.06,,---,0.07,VWS V14.01,2013-03-06 17:20:00,
2013-03-06 12:25:00,38.7,30.1,29.78,NW,318,9.0,31.0,71,0.07,,---,0.08,VWS V14.01,2013-03-06 17:25:00,
2013-03-06 12:30:00,39.6,30.6,29.78,WNW,299,11.0,24.0,70,0.05,,---,0.08,VWS V14.01,2013-03-06 17:30:00,
2013-03-06 12:35:00,40.1,30.4,29.79,NNW,336,15.0,24.0,68,0.06,,---,0.09,VWS V14.01,2013-03-06 17:35:00,
2013-03-06 12:40:00,40.1,30.8,29.78,NW,311,13.0,24.0,69,0.06,,---,0.09,VWS V14.01,2013-03-06 17:40:00,
2013-03-06 12:45:00,40.4,30.7,29.78,NNW,347,12.0,24.0,68,0.06,,---,0.09,VWS V14.01,2013-03-06 17:45:00,
2013-03-06 12:50:00,40.6,30.5,29.79,NW,304,19.0,25.0,67,0.07,,---,0.10,VWS V14.01,2013-03-06 17:50:00,
2013-03-06 12:55:00,40.3,29.9,29.79,NNE,19,10.0,25.0,66,0.07,,---,0.10,VWS V14.01,2013-03-06 17:55:00,
2013-03-06 13:00:00,40.5,30.8,29.79,WNW,294,13.0,16.0,68,0.06,,---,0.11,VWS V14.01,2013-03-06 18:00:00,
2013-03-06 13:05:00,40.8,30.0,29.80,WNW,302,10.0,24.0,65,0.06,,---,0.11,VWS V14.01,2013-03-06 18:05:00,
2013-03-06 13:10:00,41.0,29.8,29.80,NNW,344,14.0,24.0,64,0.06,,---,0.11,VWS V14.01,2013-03-06 18:10:00,
2013-03-06 13:15:00,40.9,30.1,29.80,NW,304,15.0,24.0,65,0.06,,---,0.11,VWS V14.01,2013-03-06 18:15:00,
2013-03-06 13:20:00,41.1,30.6,29.80,NNE,18,10.0,24.0,66,0.06,,---,0.11,VWS V14.01,2013-03-06 18:20:00,
2013-03-06 13:25:00,41.6,30.3,29.80,WNW,300,8.0,30.0,64,0.06,,---,0.11,VWS V14.01,2013-03-06 18:25:00,
2013-03-06 13:30:00,41.6,30.0,29.80,North,355,7.0,15.0,63,0.03,,---,0.11,VWS V14.01,2013-03-06 18:30:00,
2013-03-06 13:35:00,41.5,29.5,29.80,NW,306,15.0,27.0,62,0.03,,---,0.11,VWS V14.01,2013-03-06 18:35:00,
2013-03-06 13:40:00,41.5,29.9,29.80,NW,307,21.0,27.0,63,0.03,,---,0.11,VWS V14.01,2013-03-06 18:40:00,
2013-03-06 13:45:00,41.1,30.2,29.80,NNW,344,11.0,29.0,65,0.03,,---,0.11,VWS V14.01,2013-03-06 18:45:00,
2013-03-06 13:50:00,41.0,30.1,29.80,NNW,347,16.0,29.0,65,0.03,,---,0.11,VWS V14.01,2013-03-06 18:50:00,
2013-03-06 13:55:00,41.4,30.5,29.79,WNW,296,16.0,29.0,65,0.03,,---,0.11,VWS V14.01,2013-03-06 18:55:00,
2013-03-06 14:00:00,41.2,30.0,29.79,NW,323,22.0,23.0,64,0.00,,---,0.11,VWS V14.01,2013-03-06 19:00:00,
2013-03-06 14:05:00,41.4,30.5,29.79,WNW,285,16.0,23.0,65,0.00,,---,0.11,VWS V14.01,2013-03-06 19:05:00,
2013-03-06 14:10:00,41.2,29.6,29.80,WNW,299,16.0,29.0,63,0.00,,---,0.11,VWS V14.01,2013-03-06 19:10:00,
2013-03-06 14:15:00,41.0,29.8,29.80,West,276,17.0,29.0,64,0.00,,---,0.11,VWS V14.01,2013-03-06 19:15:00,
2013-03-06 14:20:00,41.0,31.3,29.80,NW,313,10.0,29.0,68,0.00,,---,0.11,VWS V14.01,2013-03-06 19:20:00,
2013-03-06 14:25:00,41.3,30.4,29.81,NNW,331,9.0,29.0,65,0.00,,---,0.11,VWS V14.01,2013-03-06 19:25:00,
2013-03-06 14:30:00,41.9,30.2,29.81,NW,316,14.0,20.0,63,0.00,,---,0.11,VWS V14.01,2013-03-06 19:30:00,
2013-03-06 14:35:00,41.8,30.9,29.80,NNW,331,12.0,26.0,65,0.00,,---,0.11,VWS V14.01,2013-03-06 19:35:00,
2013-03-06 14:40:00,42.1,30.4,29.81,NW,317,11.0,29.0,63,0.00,,---,0.11,VWS V14.01,2013-03-06 19:40:00,
2013-03-06 14:45:00,42.3,30.6,29.82,NNW,338,19.0,29.0,63,0.00,,---,0.11,VWS V14.01,2013-03-06 19:45:00,
2013-03-06 14:50:00,42.3,30.2,29.82,NNE,19,9.0,30.0,62,0.00,,---,0.11,VWS V14.01,2013-03-06 19:50:00,
2013-03-06 14:55:00,42.0,29.9,29.82,WNW,293,16.0,30.0,62,0.00,,---,0.11,VWS V14.01,2013-03-06 19:55:00,
2013-03-06 15:00:00,42.0,30.3,29.83,NW,310,14.0,24.0,63,0.00,,---,0.11,VWS V14.01,2013-03-06 20:00:00,
2013-03-06 15:05:00,42.0,30.3,29.83,WNW,292,14.0,26.0,63,0.00,,---,0.11,VWS V14.01,2013-03-06 20:05:00,
2013-03-06 15:10:00,42.1,30.4,29.84,North,351,27.0,27.0,63,0.00,,---,0.11,VWS V14.01,2013-03-06 20:10:00,
2013-03-06 15:15:00,41.9,30.2,29.84,NNW,327,14.0,27.0,63,0.00,,---,0.11,VWS V14.01,2013-03-06 20:15:00,
2013-03-06 15:20:00,41.8,30.1,29.85,NNW,340,15.0,27.0,63,0.00,,---,0.11,VWS V14.01,2013-03-06 20:20:00,
2013-03-06 15:25:00,42.0,29.9,29.85,NW,312,17.0,27.0,62,0.00,,---,0.11,VWS V14.01,2013-03-06 20:25:00,
2013-03-06 15:30:00,41.7,29.7,29.85,West,281,18.0,19.0,62,0.00,,---,0.11,VWS V14.01,2013-03-06 20:30:00,
2013-03-06 15:35:00,41.5,29.1,29.85,NNW,343,10.0,25.0,61,0.00,,---,0.11,VWS V14.01,2013-03-06 20:35:00,
2013-03-06 15:40:00,41.6,30.0,29.86,WNW,287,11.0,25.0,63,0.00,,---,0.11,VWS V14.01,2013-03-06 20:40:00,
2013-03-06 15:45:00,41.6,29.6,29.87,NNW,343,17.0,27.0,62,0.00,,---,0.11,VWS V14.01,2013-03-06 20:45:00,
2013-03-06 15:50:00,41.4,29.8,29.88,NW,306,8.0,27.0,63,0.01,,---,0.12,VWS V14.01,2013-03-06 20:50:00,
2013-03-06 15:55:00,41.4,29.4,29.88,NNW,332,5.0,27.0,62,0.01,,---,0.12,VWS V14.01,2013-03-06 20:55:00,
2013-03-06 16:00:00,41.5,29.9,29.89,NNW,329,16.0,20.0,63,0.01,,---,0.12,VWS V14.01,2013-03-06 21:00:00,
2013-03-06 16:05:00,41.8,30.1,29.89,NW,323,9.0,20.0,63,0.01,,---,0.12,VWS V14.01,2013-03-06 21:05:00,
2013-03-06 16:10:00,41.7,29.3,29.89,WNW,284,11.0,22.0,61,0.01,,---,0.12,VWS V14.01,2013-03-06 21:10:00,
2013-03-06 16:15:00,41.4,29.4,29.90,NW,313,16.0,22.0,62,0.01,,---,0.12,VWS V14.01,2013-03-06 21:15:00,
2013-03-06 16:20:00,41.2,29.2,29.90,NW,306,18.0,24.0,62,0.01,,---,0.12,VWS V14.01,2013-03-06 21:20:00,
2013-03-06 16:25:00,41.1,29.1,29.91,NNW,336,8.0,24.0,62,0.01,,---,0.12,VWS V14.01,2013-03-06 21:25:00,
2013-03-06 16:30:00,40.7,28.7,29.91,NNW,330,10.0,17.0,62,0.01,,---,0.12,VWS V14.01,2013-03-06 21:30:00,
2013-03-06 16:35:00,40.6,29.0,29.92,NNW,332,10.0,22.0,63,0.01,,---,0.12,VWS V14.01,2013-03-06 21:35:00,
2013-03-06 16:40:00,40.2,28.6,29.92,WNW,301,9.0,22.0,63,0.01,,---,0.12,VWS V14.01,2013-03-06 21:40:00,
2013-03-06 16:45:00,39.8,28.2,29.94,NW,304,8.0,22.0,63,0.01,,---,0.12,VWS V14.01,2013-03-06 21:45:00,
2013-03-06 16:50:00,39.6,28.8,29.94,WNW,285,15.0,22.0,65,0.01,,---,0.12,VWS V14.01,2013-03-06 21:50:00,
2013-03-06 16:55:00,39.6,28.8,29.94,WNW,300,20.0,22.0,65,0.01,,---,0.12,VWS V14.01,2013-03-06 21:55:00,
2013-03-06 17:00:00,39.5,28.7,29.94,WNW,282,8.0,11.0,65,0.00,,---,0.12,VWS V14.01,2013-03-06 22:00:00,
2013-03-06 17:05:00,39.5,29.1,29.95,NNW,341,13.0,30.0,66,0.00,,---,0.12,VWS V14.01,2013-03-06 22:05:00,
2013-03-06 17:10:00,39.8,29.0,29.95,WNW,289,9.0,30.0,65,0.00,,---,0.12,VWS V14.01,2013-03-06 22:10:00,
2013-03-06 17:15:00,40.0,29.6,29.95,West,269,14.0,30.0,66,0.00,,---,0.12,VWS V14.01,2013-03-06 22:15:00,
2013-03-06 17:20:00,40.1,29.3,29.96,WNW,297,20.0,30.0,65,0.00,,---,0.12,VWS V14.01,2013-03-06 22:20:00,
2013-03-06 17:25:00,39.8,29.0,29.96,NNW,347,12.0,30.0,65,0.00,,---,0.12,VWS V14.01,2013-03-06 22:25:00,
2013-03-06 17:30:00,39.7,28.5,29.97,NNE,23,11.0,14.0,64,0.00,,---,0.12,VWS V14.01,2013-03-06 22:30:00,
2013-03-06 17:35:00,39.5,28.4,29.97,NW,305,7.0,17.0,64,0.00,,---,0.12,VWS V14.01,2013-03-06 22:35:00,
2013-03-06 17:40:00,39.2,28.4,29.97,WNW,293,11.0,17.0,65,0.00,,---,0.12,VWS V14.01,2013-03-06 22:40:00,
2013-03-06 17:45:00,39.0,28.2,29.98,NNW,331,9.0,17.0,65,0.00,,---,0.12,VWS V14.01,2013-03-06 22:45:00,
2013-03-06 17:50:00,38.6,28.2,29.99,NW,320,9.0,17.0,66,0.00,,---,0.12,VWS V14.01,2013-03-06 22:50:00,
2013-03-06 17:55:00,38.3,28.3,29.99,North,349,7.0,23.0,67,0.00,,---,0.12,VWS V14.01,2013-03-06 22:55:00,
2013-03-06 18:00:00,38.1,28.1,29.99,WNW,282,18.0,20.0,67,0.00,,---,0.12,VWS V14.01,2013-03-06 23:00:00,
2013-03-06 18:05:00,37.9,28.3,29.99,WNW,298,7.0,20.0,68,0.00,,---,0.12,VWS V14.01,2013-03-06 23:05:00,
2013-03-06 18:10:00,37.8,28.2,29.99,NW,315,7.0,20.0,68,0.00,,---,0.12,VWS V14.01,2013-03-06 23:10:00,
2013-03-06 18:15:00,37.6,28.0,30.00,NW,308,3.0,20.0,68,0.00,,---,0.12,VWS V14.01,2013-03-06 23:15:00,
2013-03-06 18:20:00,37.5,28.3,30.01,SW,227,3.0,20.0,69,0.00,,---,0.12,VWS V14.01,2013-03-06 23:20:00,
2013-03-06 18:25:00,37.4,27.8,30.01,North,5,4.0,20.0,68,0.00,,---,0.12,VWS V14.01,2013-03-06 23:25:00,
2013-03-06 18:30:00,37.4,28.5,30.01,NW,320,5.0,9.0,70,0.00,,---,0.12,VWS V14.01,2013-03-06 23:30:00,
2013-03-06 18:35:00,37.4,28.2,30.02,North,355,8.0,15.0,69,0.00,,---,0.12,VWS V14.01,2013-03-06 23:35:00,
2013-03-06 18:40:00,37.4,28.2,30.02,NNW,329,5.0,15.0,69,0.00,,---,0.12,VWS V14.01,2013-03-06 23:40:00,
2013-03-06 18:45:00,37.4,28.2,30.02,NNW,348,11.0,15.0,69,0.00,,---,0.12,VWS V14.01,2013-03-06 23:45:00,
2013-03-06 18:50:00,37.3,28.1,30.02,NNW,328,6.0,15.0,69,0.00,,---,0.12,VWS V14.01,2013-03-06 23:50:00,
2013-03-06 18:55:00,37.3,28.4,30.03,NNW,336,11.0,15.0,70,0.00,,---,0.12,VWS V14.01,2013-03-06 23:55:00,
2013-03-06 19:00:00,37.3,28.4,30.03,WNW,302,8.0,12.0,70,0.00,,---,0.12,VWS V14.01,2013-03-07 00:00:00,
2013-03-06 19:05:00,37.2,28.3,30.03,NNW,328,3.0,14.0,70,0.00,,---,0.12,VWS V14.01,2013-03-07 00:05:00,
2013-03-06 19:10:00,37.1,28.2,30.03,ENE,64,12.0,15.0,70,0.00,,---,0.12,VWS V14.01,2013-03-07 00:10:00,
2013-03-06 19:15:00,37.0,28.1,30.03,NNW,336,4.0,17.0,70,0.00,,---,0.12,VWS V14.01,2013-03-07 00:15:00,
2013-03-06 19:20:00,37.0,28.5,30.03,WNW,294,14.0,17.0,71,0.00,,---,0.12,VWS V14.01,2013-03-07 00:20:00,
2013-03-06 19:25:00,37.0,28.5,30.03,NW,308,5.0,17.0,71,0.00,,---,0.12,VWS V14.01,2013-03-07 00:25:00,
2013-03-06 19:30:00,37.0,28.5,30.03,NNW,346,9.0,12.0,71,0.00,,---,0.12,VWS V14.01,2013-03-07 00:30:00,
2013-03-06 19:35:00,36.9,28.4,30.03,NW,305,15.0,19.0,71,0.00,,---,0.12,VWS V14.01,2013-03-07 00:35:00,
2013-03-06 19:40:00,36.9,28.4,30.03,NNW,342,7.0,22.0,71,0.00,,---,0.12,VWS V14.01,2013-03-07 00:40:00,
2013-03-06 19:45:00,37.0,28.5,30.04,NW,311,6.0,22.0,71,0.00,,---,0.12,VWS V14.01,2013-03-07 00:45:00,
2013-03-06 19:50:00,36.9,28.4,30.03,West,263,9.0,22.0,71,0.00,,---,0.12,VWS V14.01,2013-03-07 00:50:00,
2013-03-06 19:55:00,36.9,28.4,30.03,NW,311,7.0,22.0,71,0.00,,---,0.12,VWS V14.01,2013-03-07 00:55:00,
2013-03-06 20:00:00,37.0,28.5,30.03,West,264,9.0,9.0,71,0.00,,---,0.12,VWS V14.01,2013-03-07 01:00:00,
2013-03-06 20:05:00,37.1,28.6,30.04,NNW,336,7.0,18.0,71,0.00,,---,0.12,VWS V14.01,2013-03-07 01:05:00,
2013-03-06 20:10:00,37.3,28.4,30.05,NW,321,6.0,18.0,70,0.00,,---,0.12,VWS V14.01,2013-03-07 01:10:00,
2013-03-06 20:15:00,37.4,28.5,30.05,NW,319,5.0,18.0,70,0.00,,---,0.12,VWS V14.01,2013-03-07 01:15:00,
2013-03-06 20:20:00,37.5,28.6,30.05,WNW,298,5.0,18.0,70,0.00,,---,0.12,VWS V14.01,2013-03-07 01:20:00,
2013-03-06 20:25:00,37.4,28.5,30.05,North,355,8.0,18.0,70,0.00,,---,0.12,VWS V14.01,2013-03-07 01:25:00,
2013-03-06 20:30:00,37.5,29.0,30.05,WNW,299,6.0,13.0,71,0.00,,---,0.12,VWS V14.01,2013-03-07 01:30:00,
2013-03-06 20:35:00,37.5,28.6,30.04,North,5,10.0,16.0,70,0.00,,---,0.12,VWS V14.01,2013-03-07 01:35:00,
2013-03-06 20:40:00,37.5,28.6,30.05,North,351,12.0,16.0,70,0.00,,---,0.12,VWS V14.01,2013-03-07 01:40:00,
2013-03-06 20:45:00,37.4,28.9,30.05,NNE,19,15.0,19.0,71,0.00,,---,0.12,VWS V14.01,2013-03-07 01:45:00,
2013-03-06 20:50:00,37.5,29.0,30.05,NW,311,4.0,19.0,71,0.00,,---,0.12,VWS V14.01,2013-03-07 01:50:00,
2013-03-06 20:55:00,37.5,29.0,30.05,WNW,292,10.0,19.0,71,0.00,,---,0.12,VWS V14.01,2013-03-07 01:55:00,
2013-03-06 21:00:00,37.5,28.6,30.05,North,351,11.0,22.0,70,0.00,,---,0.12,VWS V14.01,2013-03-07 02:00:00,
2013-03-06 21:05:00,37.5,28.6,30.05,NW,316,11.0,22.0,70,0.00,,---,0.12,VWS V14.01,2013-03-07 02:05:00,
2013-03-06 21:10:00,37.5,28.6,30.05,NW,304,10.0,22.0,70,0.00,,---,0.12,VWS V14.01,2013-03-07 02:10:00,
2013-03-06 21:15:00,37.5,28.6,30.05,WNW,298,11.0,22.0,70,0.00,,---,0.12,VWS V14.01,2013-03-07 02:15:00,
2013-03-06 21:20:00,37.4,28.9,30.05,NNW,327,5.0,22.0,71,0.00,,---,0.12,VWS V14.01,2013-03-07 02:20:00,
2013-03-06 21:25:00,37.3,28.8,30.06,NNW,331,4.0,22.0,71,0.00,,---,0.12,VWS V14.01,2013-03-07 02:25:00,
2013-03-06 21:30:00,37.2,28.7,30.07,NNW,329,7.0,8.0,71,0.00,,---,0.12,VWS V14.01,2013-03-07 02:30:00,
2013-03-06 21:35:00,37.2,28.7,30.07,NNW,342,15.0,19.0,71,0.00,,---,0.12,VWS V14.01,2013-03-07 02:35:00,
2013-03-06 21:40:00,37.2,28.7,30.07,NW,326,7.0,19.0,71,0.00,,---,0.12,VWS V14.01,2013-03-07 02:40:00,
2013-03-06 21:45:00,37.1,28.6,30.07,WNW,302,5.0,19.0,71,0.00,,---,0.12,VWS V14.01,2013-03-07 02:45:00,
2013-03-06 21:50:00,37.1,28.6,30.07,WNW,290,7.0,20.0,71,0.00,,---,0.12,VWS V14.01,2013-03-07 02:50:00,
2013-03-06 21:55:00,37.2,28.7,30.08,WNW,298,7.0,20.0,71,0.00,,---,0.12,VWS V14.01,2013-03-07 02:55:00,
2013-03-06 22:00:00,37.2,29.0,30.07,NW,304,9.0,15.0,72,0.00,,---,0.12,VWS V14.01,2013-03-07 03:00:00,
2013-03-06 22:05:00,37.3,28.8,30.07,NW,308,10.0,15.0,71,0.00,,---,0.12,VWS V14.01,2013-03-07 03:05:00,
2013-03-06 22:10:00,37.3,28.8,30.08,WNW,300,9.0,17.0,71,0.00,,---,0.12,VWS V14.01,2013-03-07 03:10:00,
2013-03-06 22:15:00,37.4,28.9,30.08,WNW,290,12.0,18.0,71,0.00,,---,0.12,VWS V14.01,2013-03-07 03:15:00,
2013-03-06 22:20:00,37.5,29.0,30.08,NW,305,12.0,18.0,71,0.00,,---,0.12,VWS V14.01,2013-03-07 03:20:00,
2013-03-06 22:25:00,37.5,29.0,30.08,NNW,328,4.0,18.0,71,0.00,,---,0.12,VWS V14.01,2013-03-07 03:25:00,
2013-03-06 22:30:00,37.5,29.0,30.08,NW,304,11.0,18.0,71,0.00,,---,0.12,VWS V14.01,2013-03-07 03:30:00,
2013-03-06 22:36:00,37.5,29.0,30.09,NNE,16,6.0,18.0,71,0.00,,---,0.12,VWS V14.01,2013-03-07 03:36:00,
2013-03-06 22:41:00,37.5,28.6,30.09,NNW,342,7.0,21.0,70,0.00,,---,0.12,VWS V14.01,2013-03-07 03:41:00,
2013-03-06 22:46:00,37.5,29.0,30.09,NW,307,16.0,21.0,71,0.00,,---,0.12,VWS V14.01,2013-03-07 03:46:00,
2013-03-06 22:51:00,37.5,29.0,30.09,WNW,298,6.0,21.0,71,0.00,,---,0.12,VWS V14.01,2013-03-07 03:51:00,
2013-03-06 22:56:00,37.5,29.0,30.09,NNW,332,5.0,21.0,71,0.00,,---,0.12,VWS V14.01,2013-03-07 03:56:00,
2013-03-06 23:00:00,37.2,28.7,30.08,WNW,303,8.0,17.0,71,0.00,,---,0.00,VWS V14.01,2013-03-07 04:00:00,
2013-03-06 23:01:00,37.4,28.9,30.09,NW,316,4.0,11.0,71,0.00,,---,0.12,VWS V14.01,2013-03-07 04:01:00,
2013-03-06 23:06:00,37.4,28.9,30.09,WNW,300,8.0,18.0,71,0.00,,---,0.12,VWS V14.01,2013-03-07 04:06:00,
2013-03-06 23:11:00,37.5,29.0,30.08,NNW,341,3.0,18.0,71,0.00,,---,0.12,VWS V14.01,2013-03-07 04:11:00,
2013-03-06 23:16:00,37.6,29.1,30.08,NW,325,9.0,18.0,71,0.00,,---,0.12,VWS V14.01,2013-03-07 04:16:00,
2013-03-06 23:21:00,37.5,28.6,30.09,WNW,297,17.0,18.0,70,0.00,,---,0.12,VWS V14.01,2013-03-07 04:21:00,
2013-03-06 23:26:00,37.5,28.6,30.08,NNW,345,5.0,18.0,70,0.00,,---,0.12,VWS V14.01,2013-03-07 04:26:00,
2013-03-06 23:30:00,37.3,28.4,30.07,NW,320,20.0,20.0,70,0.00,,---,0.00,VWS V14.01,2013-03-07 04:30:00,
2013-03-06 23:31:00,37.4,28.9,30.08,NNW,327,9.0,13.0,71,0.00,,---,0.12,VWS V14.01,2013-03-07 04:31:00,
2013-03-06 23:36:00,37.4,28.9,30.08,NW,322,8.0,13.0,71,0.00,,---,0.12,VWS V14.01,2013-03-07 04:36:00,
2013-03-06 23:41:00,37.3,28.4,30.08,NW,311,10.0,16.0,70,0.00,,---,0.12,VWS V14.01,2013-03-07 04:41:00,
2013-03-06 23:46:00,37.3,28.4,30.08,NNW,347,7.0,16.0,70,0.00,,---,0.12,VWS V14.01,2013-03-07 04:46:00,
2013-03-06 23:51:00,37.2,28.7,30.08,NNW,340,8.0,16.0,71,0.00,,---,0.12,VWS V14.01,2013-03-07 04:51:00,
2013-03-06 23:56:00,37.2,28.3,30.08,NNW,338,8.0,17.0,70,0.00,,---,0.12,VWS V14.01,2013-03-07 04:56:00,